AirNav   Pilot Hours Calculator
 
 1252 users online  

KMKV Marksville Municipal Airport
Marksville, Louisiana, USA

GOING TO MARKSVILLE?


FAA INFORMATION EFFECTIVE 05 DECEMBER 2019

Location

FAA Identifier: MKV
Lat/Long: 31-05-40.8000N 092-04-08.6000W
31-05.680000N 092-04.143333W
31.0946667,-92.0690556
(estimated)
Elevation: 78.7 ft. / 24.0 m (surveyed)
Variation: 02E (2005)
From city: 1 mile S of MARKSVILLE, LA
Time zone: UTC -6 (UTC -5 during Daylight Saving Time)
Zip code: 71350

Airport Operations

Airport use: Open to the public
Activation date: 04/1950
Control tower: no
ARTCC: HOUSTON CENTER
FSS: DE RIDDER FLIGHT SERVICE STATION
NOTAMs facility: DRI (NOTAM-D service available)
Attendance: MON-FRI 0700-1400
Wind indicator: lighted
Segmented circle: yes
Lights: REIL RWY 4/22; MIRL RWY 04/22 PRESET LOW INTST; TO INCR INTST ACTVT - CTAF-
Beacon: white-green (lighted land airport)
Operates sunset to sunrise.

Airport Communications

CTAF: 122.9
POLK APPROACH: 125.4
POLK DEPARTURE: 125.4

Nearby radio navigation aids

VOR radial/distance  VOR name  Freq  Var
AEXr111/24.2ALEXANDRIA VORTAC116.1003E

 
NDB name  Hdg/Dist  Freq  Var  ID
DURALDE029/37.626302EECY . -.-. -.--

Airport Services

Fuel available: 100LL
FUEL AVBL 24/7 WITH CC.
Parking: tiedowns
Bottled oxygen: NONE
Bulk oxygen: NONE

Runway Information

Runway 4/22

Dimensions: 3799 x 75 ft. / 1158 x 23 m
Surface: asphalt, in good condition
Weight bearing capacity: 
Single wheel: 19.0
Runway edge lights: medium intensity
RUNWAY 4  RUNWAY 22
Latitude: 31-05.456558N31-05.901805N
Longitude: 092-04.399788W092-03.887283W
Elevation: 74.1 ft.78.5 ft.
Traffic pattern: leftleft
Runway heading: 043 magnetic, 045 true223 magnetic, 225 true
Markings: nonprecision, in good conditionnonprecision, in good condition
Visual slope indicator: 2-light PAPI on left (3.00 degrees glide path)2-light PAPI on left (3.00 degrees glide path)
Runway end identifier lights: yesyes
Touchdown point: yes, no lightsyes, no lights
Obstructions: 52 ft. trees, 2247 ft. from runway, 39:1 slope to clear26 ft. pole, 671 ft. from runway, 58 ft. left of centerline, 18:1 slope to clear

Airport Ownership and Management from official FAA records

Ownership: Publicly-owned
Owner: AVOYELLES PARISH AIRPORT AUTHORITY
312 NORTH MAIN ST
MARKSVILLE, LA 71351
Phone 318-253-9208
Manager: ALVIN MOREAU
157 JOHNSON RD.
MARKSVILLE, LA 71351
Phone 318-447-3197

Airport Operational Statistics

Aircraft based on the field: 15
Single engine airplanes: 15
    
Aircraft operations: avg 28/day *
79% local general aviation
21% transient general aviation
* for 12-month period ending 25 September 2018

Additional Remarks

NE APN PAVEMENT FAILED.
AERIAL SPRAYING INVOF ARPT.
NE APN HLDG PSN NSTD.
FOR CD CTC POLK APCH AT 337-531-2352.

Instrument Procedures

NOTE: All procedures below are presented as PDF files. If you need a reader for these files, you should download the free Adobe Reader.

NOT FOR NAVIGATION. Please procure official charts for flight.
FAA instrument procedures published for use from 05 December 2019 at 0900Z to 02 January 2020 at 0900Z.

 
IAPs - Instrument Approach Procedures
RNAV (GPS) RWY 04   download (156KB)
VOR/DME-A   download (155KB)
NOTE: Special Take-Off Minimums/Departure Procedures apply   download (116KB)

Other nearby airports with instrument procedures:

2R6 - Bunkie Municipal Airport (12 nm SW)
KESF - Esler Regional Airport (21 nm NW)
KAEX - Alexandria International Airport (28 nm NW)
KOPL - St Landry Parish Airport-Ahart Field (32 nm S)
KHZR - False River Regional Airport (38 nm SE)
 
Loc | Ops | Rwys | IFR | FBO | Links
Com | Nav | Svcs | Stats | Notes
Area around KMKV (Marksville Municipal Airport)
 
Road maps at: MapQuest Bing Google
 
Aerial photo
WARNING: Photo may not be current or correct
Aerial photo of KMKV (Marksville Municipal Airport)
Do you have a better or more recent aerial photo of Marksville Municipal Airport that you would like to share? If so, please send us your photo.

 
Sectional chart

 
Airport distance calculator
Flying to Marksville Municipal Airport? Find the distance to fly.

From to KMKV

Sunrise and sunset
Times for 16-Dec-2019
 Local
(UTC-6)
 Zulu
(UTC)
Morning civil twilight06:3412:34
Sunrise07:0113:01
Sunset17:0723:07
Evening civil twilight17:3423:34

Current date and time
Zulu (UTC)  16-Dec-2019 13:49:29
Local (UTC-6)  16-Dec-2019 07:49:29
 
METAR
KESF 
21nm NW 
161329Z AUTO 14005KT 7SM -RA BKN010 OVC080 20/19 A2991 RMK AO2 CIG 007V020 P0002 T02000189
KAEX 
29nm NW 
161327Z AUTO 13006KT 5SM BR BKN012 BKN020 OVC080 20/19 A2988 RMK AO2 T02000194
KOPL 
32nm S 
161335Z AUTO 17014G19KT 10SM OVC010 22/20 A2994 RMK AO2 T02190201
KHZR 
38nm SE 
161335Z AUTO 14006KT 7SM OVC011 21/20 A2996 RMK AO2
KACP 
38nm SW 
161338Z AUTO 19007KT 7SM SCT014 SCT022 BKN034 22/21 A2991 RMK AO2 P0003
K0R4 
40nm NE 
161335Z AUTO 14011KT 7SM SCT023 SCT047 OVC075 20/19 A2993 RMK AO2 LTG DSNT N T02020190
TAF
KAEX 
29nm NW 
161132Z 1612/1712 13007KT P6SM VCSH SCT015 BKN025 FM161400 17012KT P6SM VCTS BKN025CB OVC050 FM161600 19016G25KT P6SM VCTS BKN025CB OVC040 TEMPO 1618/1622 VRB20G30KT 2SM +TSRA OVC015CB FM162200 30012G20KT 6SM SHRA OVC025 PROB30 1622/1624 2SM +TSRA OVC025CB FM170300 32012G18KT P6SM OVC015
NOTAMs
Click for the latest NOTAMs
NOTAMs are issued by the DoD/FAA and will open in a separate window not controlled by AirNav.

 

 
 

FBO, Fuel Providers, and Aircraft Ground Support

  
 Business Name 
 
 Contact 
 
 Services / Description 
 
Fuel Prices
 
Comments
  
Marksville Municipal Airport 318-240-3088
318-253-7291
[email]
Airport management, Aviation fuel, Aircraft parking (ramp or tiedown)

More info about Marksville Municipal Airport
Phillips 66
100LL
SS $4.69 
 Updated 13-Dec-2019
 
   write
SS=Self service
Update Fuel Prices
 

Would you like to see your business listed on this page?

 If your business provides an interesting product or service to pilots, flight crews, aircraft, or users of the Marksville Municipal Airport, you should consider listing it here.  To start the listing process, click on the button below
 
Add a business
 

Other Pages about Marksville Municipal Airport

Update a link
 
Copyright © AirNav, LLC. All rights reserved. Privacy Policy  Contact